Theta_e
346 345 343 343 343 343 343 343 345 346 347 349 350 351 350 348 347 347 348 348 350 346
347 347 346 347 348 344 348 350 349 349 350 348 351 351 350 348 346 349 349 347 347 349
349 348 347 347 347 346 348 350 350 349 350 350 348 351 346 347 347 348 348 347 344 346
348 350 349 348 348 349 348 345 347 349 349 348 349 349 346 346 346 345 344 346 344 345
347 349 348 348 348 350 347 347 345 346 348 347 349 351 350 346 349 346 343 344 344 344
347 347 347 348 348 349 349 349 350 349 349 348 349 348 349 348 347 347 347 350 349 347
347 347 349 349 349 349 350 349 350 349 348 348 348 349 348 350 347 347 348 348 350 349
345 345 348 348 349 349 349 347 349 349 349 348 347 344 340 342 345 344 345 347 347 344
339 343 344 347 348 347 347 347 348 348 344 346 338 330 333 339 344 348 343 342 344 338
338 338 337 342 346 346 346 346 343 342 337 330 327 325 327 334 345 344 341 339 344 334
334 333 334 337 338 339 341 341 337 330 326 326 327 321 323 331 344 341 341 334 329 324
330 330 330 332 335 339 337 333 327 325 322 321 318 317 323 336 335 330 328 329 323 320
327 327 328 331 329 330 327 325 323 321 320 318 316 315 316 332 326 319 318 315 316 319
323 324 328 330 327 324 322 320 320 318 317 316 313 310 313 316 327 323 322 316 314 315
Wind_Speed
6 4 4 5 4 4 3 4 4 4 5 4 3 2 2 2 1 2 4 5 4 3
6 6 5 7 5 4 4 5 6 6 6 4 3 3 3 3 2 2 3 3 4 3
6 6 6 5 6 6 4 4 6 6 6 6 5 5 4 2 1 3 1 2 3 1
6 6 6 5 5 5 4 4 4 5 6 6 6 5 4 3 2 0 2 1 1 1
6 5 6 6 7 6 6 5 6 5 5 5 4 6 6 5 3 4 4 4 3 4
6 6 7 6 6 6 6 6 6 6 5 5 6 4 4 6 6 5 5 5 6 6
7 8 7 7 6 6 6 6 6 6 7 6 5 4 3 4 4 3 3 1 2 4
5 6 6 7 7 6 6 5 6 6 6 4 4 2 2 3 3 6 4 5 4 6
4 6 6 6 6 6 6 6 5 5 5 5 4 3 1 1 4 6 7 6 5 4
7 5 3 3 2 6 6 5 3 5 5 6 4 2 2 3 3 3 5 6 6 4
3 5 5 3 5 4 2 3 4 5 6 4 2 4 1 3 4 6 6 5 5 6
4 6 5 3 2 2 5 7 7 6 7 5 6 11 2 7 5 7 7 4 5 6
5 5 5 5 6 7 8 8 7 8 8 10 9 14 14 6 6 8 5 5 6 7
5 5 5 7 7 8 9 9 10 8 10 10 10 12 17 15 1 6 6 4 4 3
Wind_Direction
188 185 190 208 206 212 215 224 214 193 194 186 194 198 140 113 31 77 96 111 158 202
194 188 198 193 193 206 228 228 220 195 195 202 201 182 150 99 55 91 117 106 104 148
193 199 196 204 190 207 235 226 193 186 184 184 203 189 158 143 18 59 100 145 100 62
197 203 203 194 183 198 204 178 189 194 191 193 203 183 168 155 172 352 294 342 1 321
207 199 206 213 198 190 186 201 196 202 211 212 216 190 175 186 167 196 249 276 282 272
209 202 214 215 219 199 178 183 200 199 186 192 192 188 214 199 196 205 228 238 227 236
222 203 210 209 210 209 200 189 191 185 182 187 163 137 139 204 217 209 229 244 360 86
287 233 221 198 201 211 202 209 203 195 204 165 134 98 148 214 221 221 132 79 67 55
332 304 226 216 197 196 194 210 200 214 155 132 95 12 355 171 208 211 161 137 116 109
36 351 13 311 211 185 201 168 164 120 115 99 93 13 345 299 206 172 133 143 130 83
47 30 11 43 9 322 251 146 109 99 91 106 16 330 304 210 108 90 85 92 108 117
82 57 38 53 299 41 95 100 98 100 88 75 38 12 339 149 113 96 89 95 94 97
90 101 78 62 62 66 83 90 87 91 74 63 47 22 28 104 124 113 110 92 81 74
57 73 69 84 77 81 83 85 93 88 73 58 37 21 40 33 97 129 118 100 86 58